Powrót do katalogu

THORAD AGENA D DEB

AktywnyPO
NORAD 4997·DEBRIS·🇺🇸 United States

Wystrzelony Apr 8, 1970 z Vandenberg Space Force Base

Loading…

Następne Przeloty (najbliższe 24 godziny)

TLE

ŚwieżeSource: Space-Track

Epoka: Sep 14, 2026, 13:39 UTC

1  4997U 70025HT  26257.56914231  .00000434  00000-0  32237-3 0  9997
2  4997  99.9273 171.3194 0041740 281.6284  78.0194 14.00925187847031

Śledź THORAD AGENA D DEB w czasie rzeczywistym z AllMySat

Download on the App Store